SV2BZQ-2 Weather Reports


time (UTC)temp
C
wind
direction
speed
KPH
gust
KPH
rain 1hr
cm
rain 24hr
cm
rain mn
cm
humidity
%
barometer
mb
20260906065322 27 315 8.0 17.7 0.00 0.00 0.00 56 1015.7
20260906065155 27 5 9.7 19.3 0.00 0.00 0.00 57 1015.8
20260906065037 27 355 9.7 19.3 0.00 0.00 0.00 57 1015.7
20260906065000 27 350 9.7 19.3 0.00 0.00 0.00 57 1015.7
20260906064912 27 277 9.7 19.3 0.00 0.00 0.00 57 1015.7
20260906064744 27 336 11.3 19.3 0.00 0.00 0.00 57 1015.8
20260906064408 27 343 11.3 19.3 0.00 0.00 0.00 58 1015.7
20260906064112 27 343 9.7 19.3 0.00 0.00 0.00 58 1015.6
20260906063930 26 313 9.7 19.3 0.00 0.00 0.00 58 1015.7
20260906063539 26 295 9.7 19.3 0.00 0.00 0.00 59 1015.7
20260906063407 26 315 9.7 19.3 0.00 0.00 0.00 59 1015.7
20260906063039 26 319 9.7 19.3 0.00 0.00 0.00 60 1015.8
20260906062843 26 307 9.7 19.3 0.00 0.00 0.00 60 1015.7
20260906062643 26 322 8.0 19.3 0.00 0.00 0.00 60 1015.8
20260906062558 25 302 8.0 19.3 0.00 0.00 0.00 61 1015.7
20260906062455 25 334 8.0 19.3 0.00 0.00 0.00 61 1015.7
20260906062236 25 329 8.0 17.7 0.00 0.00 0.00 62 1015.7
20260906062217 23 290 6.4 14.5 0.00 0.00 0.00 67 1015.6
20260906062101 25 346 6.4 16.1 0.00 0.00 0.00 62 1015.6
20260906062052 25 19 6.4 16.1 0.00 0.00 0.00 62 1015.6
20260906061839 25 295 6.4 14.5 0.00 0.00 0.00 63 1015.7
20260906061712 25 280 6.4 14.5 0.00 0.00 0.00 64 1015.6
20260906061630 24 293 6.4 14.5 0.00 0.00 0.00 64 1015.6
20260906061511 24 301 6.4 12.9 0.00 0.00 0.00 64 1015.5
20260906061352 24 315 6.4 14.5 0.00 0.00 0.00 66 1015.5
20260906061230 24 294 4.8 14.5 0.00 0.00 0.00 66 1015.6
20260906061217 23 291 4.8 14.5 0.00 0.00 0.00 66 1015.6
20260906061039 23 275 4.8 14.5 0.00 0.00 0.00 67 1015.6
20260906060835 23 315 6.4 14.5 0.00 0.00 0.00 67 1015.6
20260906060429 23 275 6.4 14.5 0.00 0.00 0.00 67 1015.6
20260906060225 23 302 6.4 14.5 0.00 0.00 0.00 68 1015.5
20260906060036 23 298 8.0 14.5 0.00 0.00 0.00 68 1015.5
20260906060022 23 306 8.0 14.5 0.00 0.00 0.00 68 1015.5
20260906055818 22 305 8.0 14.5 0.00 0.00 0.00 68 1015.5
20260906055634 22 313 8.0 14.5 0.00 0.00 0.00 69 1015.6
20260906055547 22 267 8.0 14.5 0.00 0.00 0.00 69 1015.5
20260906055417 22 272 8.0 12.9 0.00 0.00 0.00 69 1015.5
20260906055228 22 271 6.4 12.9 0.00 0.00 0.00 70 1015.7
20260906055117 21 283 4.8 12.9 0.00 0.00 0.00 70 1015.6
20260906055054 21 276 4.8 11.3 0.00 0.00 0.00 70 1015.7
20260906054921 21 269 3.2 11.3 0.00 0.00 0.00 71 1015.7
20260906054758 21 294 1.6 11.3 0.00 0.00 0.00 71 1015.7
20260906054728 21 275 1.6 11.3 0.00 0.00 0.00 71 1015.7
20260906054628 21 269 1.6 4.8 0.00 0.00 0.00 71 1015.8
20260906054252 21 298 1.6 6.4 0.00 0.00 0.00 71 1015.8
20260906054037 21 298 1.6 6.4 0.00 0.00 0.00 71 1015.8
20260906054018 21 298 1.6 6.4 0.00 0.00 0.00 71 1015.8
20260906053807 21 298 3.2 6.4 0.00 0.00 0.00 71 1015.8
20260906053620 21 295 3.2 8.0 0.00 0.00 0.00 71 1015.7
20260906053539 21 308 3.2 8.0 0.00 0.00 0.00 71 1015.7
20260906053359 21 284 4.8 8.0 0.00 0.00 0.00 71 1015.7
20260906053151 21 287 4.8 8.0 0.00 0.00 0.00 71 1015.7
20260906053033 21 300 4.8 8.0 0.00 0.00 0.00 71 1015.7
20260906052952 21 327 4.8 9.7 0.00 0.00 0.00 71 1015.7
20260906052750 20 316 6.4 9.7 0.00 0.00 0.00 71 1015.7
20260906052601 20 302 6.4 9.7 0.00 0.00 0.00 71 1015.6
20260906052533 20 268 6.4 12.9 0.00 0.00 0.00 71 1015.7
20260906052353 20 325 6.4 12.9 0.00 0.00 0.00 71 1015.6
20260906052147 20 311 6.4 12.9 0.00 0.00 0.00 71 1015.7
20260906052028 20 330 6.4 12.9 0.00 0.00 0.00 71 1015.7
20260906051950 20 340 6.4 12.9 0.00 0.00 0.00 71 1015.6
20260906051750 20 309 6.4 12.9 0.00 0.00 0.00 71 1015.5
20260906051625 20 313 6.4 12.9 0.00 0.00 0.00 71 1015.5
20260906051601 20 343 6.4 11.3 0.00 0.00 0.00 71 1015.5
20260906051357 20 312 6.4 11.3 0.00 0.00 0.00 71 1015.5
20260906051142 20 318 6.4 11.3 0.00 0.00 0.00 71 1015.5
20260906051036 20 307 6.4 11.3 0.00 0.00 0.00 71 1015.5
20260906050959 20 326 4.8 11.3 0.00 0.00 0.00 71 1015.5
20260906050808 20 311 6.4 11.3 0.00 0.00 0.00 71 1015.5
20260906050559 20 319 6.4 12.9 0.00 0.00 0.00 71 1015.4
20260906050537 20 299 6.4 12.9 0.00 0.00 0.00 71 1015.4
20260906050401 20 318 6.4 12.9 0.00 0.00 0.00 71 1015.4
20260906050131 20 289 6.4 12.9 0.00 0.00 0.00 71 1015.5
20260906050022 20 287 4.8 12.9 0.00 0.00 0.00 71 1015.5
20260906050001 20 292 4.8 11.3 0.00 0.00 0.00 72 1015.2
20260906045929 20 291 4.8 12.9 0.00 0.00 0.00 71 1015.5
20260906045836 20 288 4.8 9.7 0.00 0.00 0.00 73 1014.9
20260906045823 20 286 1.6 8.0 0.00 0.00 0.00 73 1014.8
20260906045740 20 322 4.8 12.9 0.00 0.00 0.00 71 1015.5
20260906045551 20 319 4.8 12.9 0.00 0.00 0.00 71 1015.4
20260906045423 20 299 3.2 9.7 0.00 0.00 0.00 72 1015.4
20260906045306 20 288 3.2 9.7 0.00 0.00 0.00 72 1015.3
20260906045227 20 292 3.2 9.7 0.00 0.00 0.00 72 1015.3
20260906045136 20 321 3.2 8.0 0.00 0.00 0.00 72 1015.3
20260906045010 20 283 3.2 11.3 0.00 0.00 0.00 72 1015.2
20260906044625 20 292 4.8 11.3 0.00 0.00 0.00 72 1015.2
20260906044500 20 294 4.8 12.9 0.00 0.00 0.00 72 1015.3
20260906044115 20 300 4.8 12.9 0.00 0.00 0.00 72 1015.2
20260906044031 20 301 4.8 12.9 0.00 0.00 0.00 72 1015.2
20260906043911 20 296 4.8 12.9 0.00 0.00 0.00 72 1015.2
20260906043757 20 304 0.0 1.6 0.00 0.00 0.00 73 1014.5
20260906043714 20 325 6.4 12.9 0.00 0.00 0.00 72 1015.2
20260906043516 20 326 6.4 12.9 0.00 0.00 0.00 72 1015.1
20260906043504 20 305 6.4 12.9 0.00 0.00 0.00 72 1015.1
20260906043437 20 303 0.0 0.0 0.00 0.00 0.00 73 1014.4
20260906043310 20 307 8.0 12.9 0.00 0.00 0.00 72 1015.0
20260906043142 20 303 8.0 12.9 0.00 0.00 0.00 72 1015.0
20260906043058 20 334 8.0 12.9 0.00 0.00 0.00 72 1015.0
20260906043004 20 305 8.0 12.9 0.00 0.00 0.00 72 1015.0
20260906042833 20 279 6.4 12.9 0.00 0.00 0.00 72 1015.0
20260906042652 20 271 6.4 12.9 0.00 0.00 0.00 72 1015.0
20260906042642 20 275 6.4 12.9 0.00 0.00 0.00 72 1015.0
20260906042515 20 300 4.8 11.3 0.00 0.00 0.00 73 1015.0
20260906042336 20 313 4.8 11.3 0.00 0.00 0.00 73 1014.9
20260906042256 20 279 4.8 11.3 0.00 0.00 0.00 73 1014.9
20260906042206 20 279 4.8 11.3 0.00 0.00 0.00 73 1014.9
20260906042054 20 286 4.8 9.7 0.00 0.00 0.00 73 1014.9
20260906041711 20 280 4.8 9.7 0.00 0.00 0.00 73 1014.9
20260906041507 20 298 3.2 8.0 0.00 0.00 0.00 73 1014.9
20260906041356 20 315 1.6 8.0 0.00 0.00 0.00 73 1014.6
20260906041023 20 306 1.6 8.0 0.00 0.00 0.00 73 1014.8
20260906040903 20 283 0.0 6.4 0.00 0.00 0.00 73 1014.5
20260906040527 20 303 0.0 0.0 0.00 0.00 0.00 73 1014.5
20260906040359 20 303 0.0 0.0 0.00 0.00 0.00 73 1014.4
20260906040252 20 303 0.0 0.0 0.00 0.00 0.00 73 1014.4
20260906035848 20 304 0.0 0.0 0.00 0.00 0.00 73 1014.4
20260906035646 20 304 0.0 0.0 0.00 0.00 0.00 73 1014.5
20260906035500 20 304 0.0 0.0 0.00 0.00 0.00 73 1014.4
20260906035447 20 303 0.0 0.0 0.00 0.00 0.00 73 1014.4
20260906035240 20 303 0.0 0.0 0.00 0.00 0.00 73 1014.4
20260906035233 20 306 4.8 9.7 0.00 0.00 0.00 73 1014.4
20260906035214 20 321 6.4 11.3 0.00 0.00 0.00 72 1014.4
20260906035159 20 320 4.8 9.7 0.00 0.00 0.00 72 1014.3
20260906035052 20 304 0.0 0.0 0.00 0.00 0.00 73 1014.4
20260906035004 20 303 0.0 0.0 0.00 0.00 0.00 73 1014.4
20260906034917 20 303 0.0 0.0 0.00 0.00 0.00 73 1014.5
20260906034742 20 327 0.0 0.0 0.00 0.00 0.00 73 1014.5
20260906034635 20 299 0.0 3.2 0.00 0.00 0.00 73 1014.5
20260906034616 20 314 0.0 4.8 0.00 0.00 0.00 73 1014.5
20260906034450 20 334 1.6 6.4 0.00 0.00 0.00 73 1014.4
20260906034341 20 25 1.6 8.0 0.00 0.00 0.00 73 1014.4
20260906034141 20 20 3.2 8.0 0.00 0.00 0.00 73 1014.4
20260906034050 20 315 3.2 8.0 0.00 0.00 0.00 73 1014.4
20260906033928 20 321 4.8 9.7 0.00 0.00 0.00 73 1014.4
20260906033545 20 321 6.4 9.7 0.00 0.00 0.00 73 1014.4
20260906033418 20 330 6.4 12.9 0.00 0.00 0.00 73 1014.4
20260906033250 20 323 6.4 12.9 0.00 0.00 0.00 73 1014.4
20260906033229 20 322 6.4 12.9 0.00 0.00 0.00 73 1014.4
20260906033128 20 340 6.4 12.9 0.00 0.00 0.00 73 1014.4
20260906032944 20 314 6.4 12.9 0.00 0.00 0.00 72 1014.4
20260906032810 20 336 6.4 12.9 0.00 0.00 0.00 72 1014.4
20260906032737 20 310 6.4 12.9 0.00 0.00 0.00 73 1014.4
20260906032502 20 307 6.4 11.3 0.00 0.00 0.00 73 1014.4
20260906032326 20 330 6.4 11.3 0.00 0.00 0.00 72 1014.3
20260906031929 20 333 6.4 9.7 0.00 0.00 0.00 72 1014.2
20260906031757 20 298 4.8 9.7 0.00 0.00 0.00 72 1014.3
20260906031408 20 314 4.8 11.3 0.00 0.00 0.00 72 1014.3
20260906031208 20 346 4.8 11.3 0.00 0.00 0.00 72 1014.2
20260906031129 20 314 4.8 12.9 0.00 0.00 0.00 72 1013.9
20260906031113 20 317 6.4 14.5 0.00 0.00 0.00 72 1014.0
20260906031013 20 344 4.8 11.3 0.00 0.00 0.00 72 1014.2
20260906030953 20 326 4.8 11.3 0.00 0.00 0.00 72 1014.2
20260906030842 20 318 4.8 11.3 0.00 0.00 0.00 72 1014.2
20260906030716 20 334 4.8 11.3 0.00 0.00 0.00 72 1014.2
20260906030602 20 307 4.8 11.3 0.00 0.00 0.00 72 1014.2
20260906030528 20 316 4.8 8.0 0.00 0.00 0.00 72 1014.2
20260906030350 20 313 4.8 9.7 0.00 0.00 0.00 72 1014.1
20260906030226 20 306 4.8 9.7 0.00 0.00 0.00 72 1014.2
20260906030206 20 327 4.8 9.7 0.00 0.00 0.00 72 1014.2
20260906030048 20 314 4.8 9.7 0.00 0.00 0.00 72 1014.2
20260906025920 20 326 4.8 11.3 0.00 0.00 0.00 72 1014.1
20260906025810 20 325 4.8 11.3 0.00 0.00 0.00 72 1014.1
20260906025736 20 327 4.8 11.3 0.00 0.00 0.00 72 1014.1
20260906025612 20 344 4.8 11.3 0.00 0.00 0.00 72 1014.1
20260906025445 20 319 4.8 11.3 0.00 0.00 0.00 72 1013.9
20260906025434 20 300 4.8 11.3 0.00 0.00 0.00 72 1013.9
20260906025309 20 311 4.8 11.3 0.00 0.00 0.00 72 1014.0
20260906025058 20 312 4.8 11.3 0.00 0.00 0.00 72 1013.9
20260906024650 20 324 6.4 12.9 0.00 0.00 0.00 72 1013.9
20260906024453 20 313 6.4 12.9 0.00 0.00 0.00 72 1014.0
20260906024139 20 302 6.4 12.9 0.00 0.00 0.00 72 1013.9
20260906024130 20 331 6.4 12.9 0.00 0.00 0.00 72 1013.9
20260906024001 20 317 6.4 14.5 0.00 0.00 0.00 72 1013.9
20260906023818 20 309 6.4 14.5 0.00 0.00 0.00 72 1014.0
20260906023347 20 307 6.4 14.5 0.00 0.00 0.00 72 1014.0
20260906023142 20 303 6.4 14.5 0.00 0.00 0.00 72 1014.0
20260906022943 20 338 6.4 14.5 0.00 0.00 0.00 72 1014.0
20260906022744 20 307 6.4 12.9 0.00 0.00 0.00 72 1014.1
20260906022535 20 309 6.4 12.9 0.00 0.00 0.00 72 1014.1
20260906022434 20 298 6.4 12.9 0.00 0.00 0.00 73 1014.0
20260906022339 20 277 6.4 12.9 0.00 0.00 0.00 73 1014.1
20260906022131 20 318 6.4 9.7 0.00 0.00 0.00 73 1014.1
20260906021935 20 286 6.4 11.3 0.00 0.00 0.00 73 1014.0
20260906021922 20 314 6.4 11.3 0.00 0.00 0.00 73 1014.0
20260906021731 20 292 6.4 11.3 0.00 0.00 0.00 73 1014.0
20260906021528 20 318 6.4 11.3 0.00 0.00 0.00 73 1013.9
20260906021439 20 333 6.4 11.3 0.00 0.00 0.00 73 1014.0
20260906021323 20 334 6.4 11.3 0.00 0.00 0.00 73 1014.0
20260906021317 20 315 6.4 12.9 0.00 0.00 0.00 74 1014.1
20260906021143 20 331 6.4 12.9 0.00 0.00 0.00 73 1014.1
20260906020953 20 314 6.4 12.9 0.00 0.00 0.00 73 1014.1
20260906020944 20 309 6.4 12.9 0.00 0.00 0.00 73 1014.1
20260906020803 20 329 6.4 12.9 0.00 0.00 0.00 73 1014.0
20260906020622 20 319 8.0 12.9 0.00 0.00 0.00 73 1014.1
20260906020533 20 330 6.4 12.9 0.00 0.00 0.00 73 1014.1
20260906020446 20 327 6.4 12.9 0.00 0.00 0.00 73 1014.1
20260906020259 20 317 6.4 12.9 0.00 0.00 0.00 73 1014.1
20260906020129 20 306 6.4 12.9 0.00 0.00 0.00 73 1014.1
20260906020121 20 339 6.4 12.9 0.00 0.00 0.00 73 1014.1
20260906015950 20 324 6.4 12.9 0.00 0.00 0.00 73 1014.1
20260906015813 20 339 6.4 12.9 0.00 0.00 0.00 74 1014.2
20260906015431 20 329 6.4 12.9 0.00 0.00 0.00 74 1014.1
20260906015306 20 300 4.8 11.3 0.00 0.00 0.00 74 1014.2
20260906015152 20 324 4.8 11.3 0.00 0.00 0.00 74 1014.2
20260906015140 20 301 4.8 11.3 0.00 0.00 0.00 74 1014.2
20260906015017 20 326 4.8 9.7 0.00 0.00 0.00 74 1014.2
20260906014852 20 311 4.8 9.7 0.00 0.00 0.00 73 1014.2
20260906014813 20 305 4.8 9.7 0.00 0.00 0.00 73 1014.2
20260906014721 20 321 4.8 9.7 0.00 0.00 0.00 73 1014.2
20260906014106 20 333 4.8 11.3 0.00 0.00 0.00 73 1014.2
20260906013923 20 297 4.8 11.3 0.00 0.00 0.00 73 1014.2
20260906013909 20 323 4.8 11.3 0.00 0.00 0.00 73 1014.2
20260906013708 20 322 4.8 11.3 0.00 0.00 0.00 73 1014.3
20260906013506 20 318 4.8 11.3 0.00 0.00 0.00 73 1014.3
20260906013415 20 302 4.8 11.3 0.00 0.00 0.00 73 1014.3
20260906013308 20 304 6.4 11.3 0.00 0.00 0.00 73 1014.2
20260906013109 20 309 6.4 9.7 0.00 0.00 0.00 73 1014.3
20260906012905 20 321 4.8 9.7 0.00 0.00 0.00 73 1014.3
20260906012703 20 302 4.8 9.7 0.00 0.00 0.00 73 1014.2
20260906012509 20 325 4.8 9.7 0.00 0.00 0.00 73 1014.2
20260906012417 20 324 4.8 9.7 0.00 0.00 0.00 73 1014.2
20260906012306 20 318 4.8 9.7 0.00 0.00 0.00 73 1014.2
20260906012104 20 312 4.8 8.0 0.00 0.00 0.00 73 1014.1
20260906011922 20 290 4.8 8.0 0.00 0.00 0.00 73 1014.2
20260906011907 20 310 4.8 8.0 0.00 0.00 0.00 73 1014.2
20260906011705 20 315 4.8 8.0 0.00 0.00 0.00 73 1014.3
20260906011513 20 332 4.8 8.0 0.00 0.00 0.00 73 1014.2
20260906011443 20 302 6.4 9.7 0.00 0.00 0.00 73 1014.1
20260906011418 20 298 4.8 8.0 0.00 0.00 0.00 73 1014.2
20260906011323 20 315 4.8 8.0 0.00 0.00 0.00 73 1014.2
20260906011158 20 303 4.8 8.0 0.00 0.00 0.00 73 1014.3
20260906011041 20 316 4.8 8.0 0.00 0.00 0.00 73 1014.2
20260906011024 20 318 4.8 8.0 0.00 0.00 0.00 73 1014.2
20260906010853 20 314 6.4 8.0 0.00 0.00 0.00 73 1014.2
20260906010652 20 340 6.4 9.7 0.00 0.00 0.00 73 1014.1
20260906010243 20 323 4.8 9.7 0.00 0.00 0.00 73 1014.2
20260906010041 20 321 6.4 9.7 0.00 0.00 0.00 73 1014.2
20260906005905 20 317 6.4 9.7 0.00 0.00 0.00 73 1014.2
20260906005842 20 317 6.4 9.7 0.00 0.00 0.00 73 1014.2
20260906005642 20 305 4.8 9.7 0.00 0.00 0.00 73 1014.1
20260906005445 21 332 4.8 8.0 0.00 0.00 0.00 73 1014.1
20260906005410 21 313 4.8 9.7 0.00 0.00 0.00 73 1014.0
20260906005239 21 301 4.8 9.7 0.00 0.00 0.00 72 1014.1
20260906005204 22 300 3.2 6.4 0.00 0.00 0.00 70 1014.0
20260906005137 22 326 6.4 9.7 0.00 0.00 0.00 70 1014.0
20260906005039 21 299 4.8 9.7 0.00 0.00 0.00 72 1014.0
20260906004950 21 305 4.8 8.0 0.00 0.00 0.00 71 1014.0
20260906004918 21 315 4.8 9.7 0.00 0.00 0.00 72 1014.0
20260906004851 21 320 4.8 9.7 0.00 0.00 0.00 72 1014.0
20260906004734 21 301 4.8 9.7 0.00 0.00 0.00 72 1014.0
20260906004603 21 312 4.8 9.7 0.00 0.00 0.00 72 1014.0
20260906004538 21 292 4.8 8.0 0.00 0.00 0.00 72 1014.0
20260906004441 21 270 4.8 6.4 0.00 0.00 0.00 71 1014.0
20260906004050 21 314 4.8 8.0 0.00 0.00 0.00 71 1014.0
20260906003950 21 313 4.8 8.0 0.00 0.00 0.00 71 1014.0
20260906003925 21 320 4.8 8.0 0.00 0.00 0.00 71 1014.0
20260906003804 21 304 4.8 8.0 0.00 0.00 0.00 71 1014.0
20260906003634 21 314 4.8 8.0 0.00 0.00 0.00 71 1014.0
20260906003332 21 312 4.8 8.0 0.00 0.00 0.00 70 1014.0
20260906003318 21 316 4.8 6.4 0.00 0.00 0.00 71 1014.0
20260906003235 21 291 4.8 8.0 0.00 0.00 0.00 71 1014.0
20260906003100 21 291 4.8 8.0 0.00 0.00 0.00 71 1014.0
20260906003008 21 308 4.8 8.0 0.00 0.00 0.00 71 1014.0
20260906002935 21 292 4.8 8.0 0.00 0.00 0.00 71 1014.0
20260906002810 21 293 4.8 8.0 0.00 0.00 0.00 71 1013.9
20260906002426 21 303 4.8 8.0 0.00 0.00 0.00 71 1014.0
20260906002404 21 304 4.8 8.0 0.00 0.00 0.00 71 1014.0
20260906002236 21 310 4.8 8.0 0.00 0.00 0.00 71 1014.1
20260906002105 21 288 4.8 8.0 0.00 0.00 0.00 71 1014.0
20260906002008 21 318 4.8 8.0 0.00 0.00 0.00 71 1014.0
20260906001926 21 319 4.8 8.0 0.00 0.00 0.00 71 1014.0
20260906001812 21 306 4.8 8.0 0.00 0.00 0.00 71 1014.0
20260906001643 21 335 4.8 8.0 0.00 0.00 0.00 70 1014.0
20260906001312 21 322 4.8 8.0 0.00 0.00 0.00 70 1014.0
20260906001148 21 287 4.8 9.7 0.00 0.00 0.00 70 1014.0
20260906001058 21 312 4.8 9.7 0.00 0.00 0.00 70 1014.1
20260906001020 21 323 4.8 9.7 0.00 0.00 0.00 70 1014.1
20260906000857 21 313 4.8 9.7 0.00 0.00 0.00 70 1014.0
20260906000708 21 292 4.8 9.7 0.00 0.00 0.00 71 1014.1
20260906000501 21 322 4.8 9.7 0.00 0.00 0.00 71 1014.0
20260906000305 21 325 3.2 9.7 0.00 0.00 0.00 71 1014.0
20260906000207 21 305 3.2 9.7 0.00 0.00 0.00 71 1014.0
20260906000039 21 295 3.2 6.4 0.00 0.00 0.00 71 1014.0
20260905235829 21 308 3.2 6.4 0.00 0.00 0.00 71 1014.0
20260905235625 21 323 4.8 6.4 0.00 0.00 0.00 71 1014.0
20260905235224 21 332 4.8 9.7 0.00 0.00 0.00 71 1014.0
20260905235052 21 333 6.4 9.7 0.00 0.00 0.00 71 1014.0
20260905235011 21 330 6.4 9.7 0.00 0.00 0.00 71 1014.0
20260905234929 21 327 6.4 9.7 0.00 0.00 0.00 71 1014.0
20260905234812 21 295 6.4 9.7 0.00 0.00 0.00 71 1014.0
20260905234641 21 326 4.8 9.7 0.00 0.00 0.00 71 1014.1
20260905234629 21 317 4.8 9.7 0.00 0.00 0.00 71 1014.1
20260905234503 21 322 3.2 8.0 0.00 0.00 0.00 70 1014.1
20260905234328 22 316 3.2 6.4 0.00 0.00 0.00 70 1014.0
20260905233816 22 294 1.6 6.4 0.00 0.00 0.00 70 1014.0
20260905233648 22 306 1.6 6.4 0.00 0.00 0.00 70 1013.9
20260905233502 22 286 1.6 6.4 0.00 0.00 0.00 70 1014.0
20260905233338 22 279 1.6 4.8 0.00 0.00 0.00 70 1014.1
20260905232952 22 309 1.6 6.4 0.00 0.00 0.00 70 1014.1
20260905232923 22 313 3.2 6.4 0.00 0.00 0.00 70 1014.0
20260905232836 22 325 3.2 9.7 0.00 0.00 0.00 70 1013.9
20260905232721 22 327 4.8 9.7 0.00 0.00 0.00 70 1014.0
20260905232320 22 323 6.4 9.7 0.00 0.00 0.00 70 1014.0
20260905232122 22 321 6.4 9.7 0.00 0.00 0.00 69 1014.1
20260905231913 22 317 6.4 11.3 0.00 0.00 0.00 70 1014.1
20260905231850 22 321 6.4 11.3 0.00 0.00 0.00 70 1014.1
20260905231710 22 323 6.4 11.3 0.00 0.00 0.00 69 1014.1
20260905231511 22 292 6.4 11.3 0.00 0.00 0.00 69 1014.1
20260905231348 22 283 6.4 11.3 0.00 0.00 0.00 69 1014.2
20260905231310 22 298 6.4 11.3 0.00 0.00 0.00 69 1014.2
20260905231111 22 307 6.4 11.3 0.00 0.00 0.00 69 1014.1
20260905230909 22 329 6.4 11.3 0.00 0.00 0.00 68 1014.1
20260905230844 22 309 6.4 11.3 0.00 0.00 0.00 68 1014.1
20260905230710 22 325 6.4 11.3 0.00 0.00 0.00 68 1014.1
20260905230459 22 276 6.4 11.3 0.00 0.00 0.00 68 1014.2
20260905230349 22 292 6.4 11.3 0.00 0.00 0.00 68 1014.2
20260905230300 22 322 6.4 11.3 0.00 0.00 0.00 68 1014.2
20260905230055 22 301 6.4 11.3 0.00 0.00 0.00 67 1014.3
20260905225906 23 306 6.4 11.3 0.00 0.00 0.00 67 1014.4
20260905225845 23 313 6.4 11.3 0.00 0.00 0.00 67 1014.4
20260905225655 23 299 6.4 11.3 0.00 0.00 0.00 66 1014.3
20260905225455 23 314 6.4 11.3 0.00 0.00 0.00 66 1014.3
20260905225347 23 317 6.4 11.3 0.00 0.00 0.00 66 1014.3
20260905225251 23 323 6.4 11.3 0.00 0.00 0.00 65 1014.3
20260905225048 23 314 6.4 11.3 0.00 0.00 0.00 64 1014.3
20260905224908 24 297 6.4 9.7 0.00 0.00 0.00 64 1014.3
20260905224854 24 281 6.4 9.7 0.00 0.00 0.00 64 1014.3
20260905224736 24 309 4.8 8.0 0.00 0.00 0.00 64 1014.3
20260905224614 24 320 3.2 8.0 0.00 0.00 0.00 63 1014.3
20260905224526 25 314 3.2 8.0 0.00 0.00 0.00 62 1014.3
20260905224452 25 298 3.2 8.0 0.00 0.03 0.00 62 1014.3
20260905224048 25 304 1.6 8.0 0.00 0.03 0.00 62 1014.3
20260905223854 25 315 0.0 6.4 0.00 0.03 0.00 61 1014.2
20260905223844 25 297 0.0 4.8 0.00 0.03 0.00 61 1014.2
20260905223714 25 305 0.0 0.0 0.00 0.03 0.00 59 1014.3
20260905223649 25 284 0.0 0.0 0.00 0.03 0.00 61 1014.2
20260905223525 25 299 0.0 0.0 0.00 0.03 0.00 60 1014.3
20260905223434 25 304 0.0 0.0 0.00 0.03 0.00 60 1014.3
20260905223353 25 304 0.0 0.0 0.00 0.03 0.00 60 1014.3
20260905223223 25 305 0.0 0.0 0.00 0.03 0.00 60 1014.3
20260905222832 25 304 0.0 0.0 0.00 0.03 0.00 59 1014.3
20260905222629 25 305 0.0 0.0 0.00 0.03 0.00 59 1014.3
20260905222431 25 305 0.0 0.0 0.00 0.03 0.00 59 1014.3
20260905222333 25 304 0.0 0.0 0.00 0.03 0.00 58 1014.3
20260905222222 25 304 0.0 0.0 0.00 0.03 0.00 58 1014.3
20260905222026 25 0 0.0 0.0 0.00 0.03 0.00 56 1014.3
20260905221832 25 5 0.0 0.0 0.00 0.03 0.00 56 1014.3
20260905221810 25 0 0.0 0.0 0.00 0.03 0.00 56 1014.3
20260905221606 25 9 0.0 0.0 0.00 0.03 0.00 56 1014.3
20260905221410 25 23 0.0 0.0 0.00 0.03 0.00 56 1014.3
20260905221337 25 23 0.0 0.0 0.00 0.03 0.00 56 1014.3
20260905221205 25 40 0.0 0.0 0.00 0.03 0.00 56 1014.3
20260905221005 25 41 0.0 0.0 0.00 0.03 0.00 56 1014.2
20260905220838 25 38 0.0 0.0 0.00 0.03 0.00 56 1014.2
20260905220805 25 38 0.0 0.0 0.00 0.03 0.00 56 1014.2
20260905220607 25 30 0.0 0.0 0.00 0.03 0.00 56 1014.2
20260905220409 25 40 0.0 0.0 0.00 0.03 0.00 56 1014.2
20260905220329 25 40 0.0 0.0 0.00 0.03 0.00 56 1014.2
20260905220159 25 40 0.0 0.0 0.00 0.03 0.00 56 1014.1
20260905215957 25 47 0.0 0.0 0.00 0.03 0.00 56 1014.1
20260905215812 25 47 0.0 0.0 0.00 0.03 0.00 56 1014.1
20260905215751 25 47 0.0 0.0 0.00 0.03 0.00 56 1014.1
20260905215552 25 47 0.0 0.0 0.00 0.03 0.00 56 1014.1
20260905215422 25 47 0.0 0.0 0.00 0.03 0.00 56 1014.1
20260905215350 25 46 0.0 0.0 0.00 0.03 0.00 56 1014.1
20260905215307 25 46 0.0 0.0 0.00 0.03 0.00 56 1014.1
20260905215147 25 47 0.0 0.0 0.00 0.03 0.00 56 1014.1
20260905215019 25 47 0.0 0.0 0.00 0.03 0.00 56 1014.1
20260905214904 26 46 0.0 0.0 0.00 0.03 0.00 56 1014.0
20260905214738 26 63 0.0 0.0 0.00 0.03 0.00 56 1014.0
20260905214705 26 63 0.0 3.2 0.00 0.03 0.00 56 1014.2
20260905214134 26 80 0.0 3.2 0.00 0.03 0.00 56 1014.2
20260905213931 26 80 0.0 3.2 0.00 0.03 0.00 56 1014.3
20260905213728 26 80 0.0 3.2 0.00 0.03 0.00 56 1014.3
20260905213526 26 69 0.0 3.2 0.00 0.03 0.00 56 1014.3
20260905213326 26 69 0.0 3.2 0.00 0.03 0.00 56 1014.3
20260905213251 26 64 0.0 1.6 0.00 0.03 0.00 56 1014.4
20260905213122 26 65 0.0 3.2 0.00 0.03 0.00 56 1014.4
20260905212920 26 63 0.0 3.2 0.00 0.03 0.00 56 1014.3
20260905212749 26 62 0.0 3.2 0.00 0.03 0.00 57 1014.3
20260905212710 26 78 0.0 3.2 0.00 0.03 0.00 57 1014.3
20260905212509 26 64 0.0 3.2 0.00 0.03 0.00 57 1014.4
20260905212311 26 64 0.0 3.2 0.00 0.03 0.00 57 1014.4
20260905212244 26 63 0.0 3.2 0.00 0.03 0.00 57 1014.4
20260905212110 26 83 0.0 0.0 0.00 0.03 0.00 57 1014.5
20260905211909 26 43 0.0 0.0 0.00 0.03 0.00 57 1014.5
20260905211746 26 38 0.0 0.0 0.00 0.03 0.00 57 1014.5
20260905211702 26 38 0.0 0.0 0.00 0.03 0.00 57 1014.5
20260905211502 26 40 0.0 1.6 0.00 0.03 0.00 57 1014.5
20260905211247 26 94 0.0 1.6 0.00 0.03 0.00 57 1014.5
20260905211110 26 94 0.0 1.6 0.00 0.03 0.00 57 1014.4
20260905210904 26 94 0.0 1.6 0.00 0.03 0.00 57 1014.5
20260905210742 26 94 0.0 1.6 0.00 0.03 0.00 57 1014.5
20260905210701 26 94 0.0 1.6 0.00 0.03 0.00 57 1014.4
20260905210502 26 94 0.0 1.6 0.00 0.03 0.00 57 1014.4
20260905210237 26 94 0.0 1.6 0.00 0.03 0.00 57 1014.4
20260905210113 26 94 0.0 1.6 0.00 0.03 0.00 57 1014.4
20260905205844 26 94 0.0 1.6 0.00 0.03 0.03 57 1014.4
20260905205740 26 94 0.0 1.6 0.00 0.03 0.03 57 1014.4
20260905205636 26 94 0.0 1.6 0.00 0.03 0.03 57 1014.4
20260905205437 26 94 0.0 1.6 0.00 0.03 0.03 57 1014.4
20260905205236 26 94 0.0 1.6 0.00 0.03 0.03 57 1014.5
20260905205026 26 94 0.0 1.6 0.00 0.03 0.03 57 1014.5
20260905205006 26 94 1.6 4.8 0.00 0.03 0.03 58 1014.5
20260905204859 26 94 0.0 1.6 0.00 0.03 0.03 57 1014.5
20260905204810 26 94 0.0 1.6 0.00 0.03 0.03 57 1014.5
20260905204734 26 94 0.0 1.6 0.00 0.03 0.03 57 1014.5
20260905204617 26 94 0.0 3.2 0.00 0.03 0.03 57 1014.5
20260905204451 26 94 0.0 4.8 0.00 0.03 0.03 57 1014.5
20260905204122 26 94 1.6 4.8 0.00 0.03 0.03 57 1014.6
20260905204009 26 94 1.6 4.8 0.00 0.03 0.03 58 1014.5
20260905203604 26 94 1.6 4.8 0.00 0.03 0.03 57 1014.5
20260905203408 26 95 1.6 4.8 0.00 0.03 0.03 57 1014.5
20260905203220 26 74 1.6 4.8 0.00 0.03 0.03 58 1014.6
20260905203206 26 74 1.6 4.8 0.00 0.03 0.03 58 1014.6
20260905203006 26 82 1.6 4.8 0.00 0.03 0.03 58 1014.5
20260905202805 26 92 0.0 4.8 0.00 0.03 0.03 57 1014.6
20260905202709 26 92 0.0 4.8 0.00 0.03 0.03 58 1014.6
20260905202559 26 95 0.0 4.8 0.00 0.03 0.03 58 1014.6
20260905202408 26 54 0.0 4.8 0.00 0.03 0.03 57 1014.6
20260905202201 27 138 0.0 0.0 0.00 0.03 0.03 57 1014.6
20260905201951 27 138 0.0 0.0 0.00 0.03 0.03 57 1014.6
20260905201744 27 138 0.0 0.0 0.00 0.03 0.03 57 1014.6
20260905201659 27 138 0.0 0.0 0.00 0.03 0.03 57 1014.6
20260905201537 27 138 0.0 0.0 0.00 0.03 0.03 57 1014.6
20260905201337 27 138 0.0 0.0 0.00 0.03 0.03 57 1014.6
20260905201128 27 138 0.0 0.0 0.00 0.03 0.03 57 1014.5
20260905200930 27 138 0.0 0.0 0.00 0.03 0.03 57 1014.5
20260905200722 27 138 0.0 0.0 0.00 0.03 0.03 57 1014.5
20260905200639 27 138 0.0 0.0 0.00 0.03 0.03 57 1014.5
20260905200523 27 138 0.0 0.0 0.00 0.03 0.03 57 1014.5
20260905200313 27 138 0.0 0.0 0.00 0.03 0.03 57 1014.5
20260905200136 27 138 0.0 0.0 0.00 0.03 0.03 57 1014.5
20260905200109 27 139 0.0 0.0 0.00 0.03 0.03 57 1014.5
20260905195906 27 138 0.0 0.0 0.00 0.03 0.03 56 1014.5
20260905195714 27 138 0.0 1.6 0.00 0.03 0.03 56 1014.6
20260905195625 27 139 0.0 1.6 0.00 0.03 0.03 56 1014.6
20260905195504 27 138 0.0 1.6 0.00 0.03 0.03 56 1014.5
20260905195341 29 131 1.6 4.8 0.00 0.03 0.03 66 1013.7
20260905195259 27 139 0.0 1.6 0.00 0.03 0.03 56 1014.5
20260905195153 27 112 3.2 4.8 0.00 0.03 0.03 57 1014.4
20260905195123 27 138 0.0 1.6 0.00 0.03 0.03 56 1014.6
20260905195111 27 122 0.0 6.4 0.00 0.03 0.03 58 1014.5
20260905195055 27 138 0.0 1.6 0.00 0.03 0.03 56 1014.6
20260905195045 27 123 0.0 4.8 0.00 0.03 0.03 58 1014.5
20260905194952 28 151 0.0 3.2 0.00 0.03 0.03 63 1014.2
20260905194923 28 117 1.6 4.8 0.00 0.03 0.03 65 1014.0
20260905194901 27 138 0.0 3.2 0.00 0.03 0.03 56 1014.5
20260905194739 27 139 0.0 3.2 0.00 0.03 0.03 56 1014.5
20260905194715 27 138 0.0 3.2 0.00 0.03 0.03 56 1014.5
20260905194617 27 138 0.0 3.2 0.00 0.03 0.03 56 1014.5
20260905194457 27 138 0.0 3.2 0.00 0.03 0.03 56 1014.5
20260905194152 28 128 1.6 6.4 0.00 0.03 0.03 65 1014.1
20260905194137 28 114 1.6 6.4 0.00 0.03 0.03 65 1014.0
20260905194112 27 138 1.6 6.4 0.00 0.03 0.03 56 1014.5
20260905194039 27 138 1.6 6.4 0.00 0.03 0.03 56 1014.5
20260905193903 27 138 1.6 6.4 0.00 0.03 0.03 56 1014.5
20260905193724 27 138 1.6 6.4 0.00 0.03 0.03 57 1014.4
20260905193625 27 138 1.6 6.4 0.00 0.03 0.03 57 1014.4
20260905193501 27 117 1.6 6.4 0.00 0.03 0.03 57 1014.5
20260905193121 27 110 1.6 4.8 0.00 0.03 0.03 57 1014.4
20260905193011 27 132 1.6 6.4 0.00 0.03 0.03 57 1014.4
20260905192855 27 120 1.6 6.4 0.00 0.03 0.03 57 1014.4
20260905192835 27 109 1.6 6.4 0.00 0.03 0.03 57 1014.4
20260905192732 27 127 1.6 6.4 0.00 0.03 0.03 57 1014.4
20260905192612 27 145 1.6 6.4 0.00 0.03 0.03 57 1014.5
20260905192242 27 123 0.0 6.4 0.00 0.03 0.03 58 1014.5
20260905192133 27 106 0.0 4.8 0.00 0.03 0.03 58 1014.4
20260905192005 27 123 0.0 4.8 0.00 0.03 0.03 58 1014.5
20260905191624 27 122 0.0 4.8 0.00 0.03 0.03 59 1014.4
20260905191327 30 187 0.0 4.8 0.00 0.03 0.03 63 1013.7
20260905191300 30 263 0.0 4.8 0.00 0.03 0.03 62 1013.7
20260905191237 31 140 3.2 11.3 0.00 0.03 0.03 58 1013.6
20260905191214 27 122 0.0 4.8 0.00 0.03 0.03 59 1014.4
20260905191106 27 123 1.6 6.4 0.00 0.03 0.03 59 1014.5
20260905191049 31 198 4.8 11.3 0.00 0.03 0.03 54 1013.6
20260905191016 27 122 1.6 6.4 0.00 0.03 0.03 59 1014.5
20260905190959 32 164 3.2 16.1 0.00 0.03 0.03 53 1013.6
20260905190843 32 187 4.8 14.5 0.00 0.03 0.03 49 1013.5
20260905190809 27 141 1.6 6.4 0.00 0.03 0.03 59 1014.5
20260905190742 33 160 4.8 11.3 0.00 0.03 0.03 49 1013.4
20260905190615 27 142 1.6 6.4 0.00 0.03 0.03 59 1014.5
20260905190559 27 141 1.6 6.4 0.00 0.03 0.03 59 1014.5
20260905190446 27 123 1.6 6.4 0.00 0.03 0.03 59 1014.4
20260905190318 27 109 1.6 6.4 0.00 0.03 0.03 59 1014.5
20260905190216 27 145 1.6 4.8 0.00 0.03 0.03 59 1014.5
20260905190142 27 113 1.6 4.8 0.00 0.03 0.03 59 1014.4
20260905190018 27 140 1.6 4.8 0.00 0.03 0.03 59 1014.5
20260905185902 27 155 0.0 4.8 0.00 0.03 0.03 59 1014.5
20260905185848 27 155 0.0 4.8 0.00 0.03 0.03 59 1014.5
20260905185744 27 136 0.0 4.8 0.00 0.03 0.03 59 1014.5
20260905185607 27 136 0.0 4.8 0.00 0.03 0.03 59 1014.5
20260905185518 27 125 0.0 4.8 0.00 0.03 0.03 59 1014.6
20260905185451 27 125 0.0 4.8 0.00 0.03 0.03 60 1014.5
20260905185335 27 129 0.0 4.8 0.00 0.03 0.03 60 1014.5
20260905185219 27 129 1.6 4.8 0.00 0.03 0.03 60 1014.5
20260905185151 27 129 1.6 4.8 0.00 0.03 0.03 60 1014.5
20260905185057 27 129 1.6 4.8 0.00 0.03 0.03 60 1014.4
20260905184930 27 129 1.6 4.8 0.00 0.03 0.03 60 1014.4
20260905184832 27 129 1.6 4.8 0.00 0.03 0.03 60 1014.4
20260905184802 27 129 1.6 4.8 0.00 0.03 0.03 60 1014.5
20260905184651 27 119 1.6 4.8 0.00 0.03 0.03 60 1014.4
20260905184526 27 152 1.6 4.8 0.00 0.03 0.03 61 1014.5
20260905184512 27 137 1.6 4.8 0.00 0.03 0.03 61 1014.5
20260905184108 27 150 1.6 3.2 0.00 0.03 0.03 61 1014.4
20260905183947 27 151 1.6 4.8 0.00 0.03 0.03 62 1014.4
20260905183900 27 150 1.6 4.8 0.00 0.03 0.03 62 1014.3
20260905183818 27 151 1.6 4.8 0.00 0.03 0.03 62 1014.3
20260905183644 27 151 1.6 4.8 0.00 0.03 0.03 62 1014.4
20260905183521 28 150 1.6 4.8 0.00 0.03 0.03 62 1014.3
20260905183510 28 151 1.6 4.8 0.00 0.03 0.03 62 1014.3
20260905183333 28 150 0.0 4.8 0.00 0.03 0.03 62 1014.3
20260905183225 28 151 0.0 3.2 0.00 0.03 0.03 62 1014.3
20260905183132 28 151 0.0 1.6 0.00 0.03 0.03 63 1014.3
20260905183055 28 151 0.0 1.6 0.00 0.03 0.03 63 1014.3
20260905182949 28 150 0.0 1.6 0.00 0.03 0.03 63 1014.3
20260905182829 28 151 0.0 3.2 0.00 0.03 0.03 63 1014.2
20260905182459 28 150 0.0 3.2 0.00 0.03 0.03 63 1014.1
20260905182330 28 151 0.0 3.2 0.00 0.03 0.03 63 1014.1
20260905182248 28 151 1.6 3.2 0.00 0.03 0.03 63 1014.2
20260905182205 28 151 1.6 4.8 0.00 0.03 0.03 63 1014.1
20260905182057 28 151 1.6 4.8 0.00 0.03 0.03 63 1014.1
20260905181946 28 151 1.6 4.8 0.00 0.03 0.03 64 1014.1
20260905181926 28 150 1.6 4.8 0.00 0.03 0.03 64 1014.1
20260905181756 28 151 1.6 4.8 0.00 0.03 0.03 64 1014.1
20260905181643 28 151 1.6 4.8 0.00 0.03 0.03 64 1014.0
20260905181308 28 166 1.6 4.8 0.00 0.03 0.03 65 1014.1
20260905181147 28 157 1.6 4.8 0.00 0.03 0.03 65 1014.1
20260905180810 28 141 1.6 6.4 0.00 0.03 0.03 65 1014.1
20260905180634 28 186 1.6 6.4 0.00 0.03 0.03 66 1014.0
20260905180504 28 158 1.6 6.4 0.00 0.03 0.03 65 1014.0
20260905180346 28 130 3.2 6.4 0.00 0.03 0.03 65 1014.1
20260905180226 28 142 3.2 6.4 0.00 0.03 0.03 65 1014.0
20260905180117 28 140 3.2 6.4 0.00 0.03 0.03 65 1014.0
20260905180100 28 122 1.6 6.4 0.00 0.03 0.03 65 1014.0
20260905175937 28 133 3.2 9.7 0.00 0.03 0.03 65 1014.0
20260905175818 28 158 3.2 9.7 0.00 0.03 0.03 65 1013.9
20260905175753 28 170 3.2 9.7 0.00 0.03 0.03 65 1013.9
20260905175704 28 167 1.6 9.7 0.00 0.03 0.03 65 1013.9
20260905175545 28 130 1.6 9.7 0.00 0.03 0.03 65 1013.8
20260905175448 28 179 1.6 9.7 0.00 0.03 0.03 65 1013.8
20260905175421 28 128 1.6 9.7 0.00 0.03 0.03 65 1013.8
20260905175301 29 138 1.6 6.4 0.00 0.03 0.03 65 1013.8
20260905175143 29 130 1.6 6.4 0.00 0.03 0.03 65 1013.7
20260905175117 29 156 1.6 6.4 0.00 0.03 0.03 65 1013.7
20260905175023 29 114 3.2 6.4 0.00 0.03 0.03 65 1013.7
20260905174909 29 153 1.6 4.8 0.00 0.03 0.03 65 1013.7
20260905173926 29 114 1.6 4.8 0.00 0.03 0.03 66 1013.7
20260905173803 29 165 1.6 4.8 0.00 0.03 0.03 66 1013.8
20260905173657 29 157 1.6 6.4 0.00 0.03 0.03 65 1013.8
20260905173635 29 178 1.6 6.4 0.00 0.03 0.03 65 1013.8
20260905173545 29 150 1.6 6.4 0.00 0.03 0.03 65 1013.8
20260905173434 29 154 1.6 6.4 0.00 0.03 0.03 65 1013.8
20260905173339 30 190 1.6 6.4 0.00 0.03 0.03 65 1013.8
20260905173315 30 134 1.6 6.4 0.00 0.03 0.03 65 1013.8
20260905173157 30 119 1.6 6.4 0.00 0.03 0.03 65 1013.9
20260905173049 30 157 0.0 4.8 0.00 0.03 0.03 64 1013.9
20260905173032 30 158 0.0 4.8 0.00 0.03 0.03 64 1013.9
20260905172928 30 157 0.0 4.8 0.00 0.03 0.03 64 1013.9
20260905172820 30 158 0.0 4.8 0.00 0.03 0.03 64 1013.9
20260905172724 30 158 0.0 4.8 0.00 0.03 0.03 64 1013.8
20260905172654 30 158 0.0 4.8 0.00 0.03 0.03 64 1013.8
20260905172535 30 188 0.0 1.6 0.00 0.03 0.03 63 1013.7
20260905172426 30 187 0.0 3.2 0.00 0.03 0.03 63 1013.8
20260905172407 30 188 0.0 3.2 0.00 0.03 0.03 63 1013.8
20260905172305 30 188 0.0 3.2 0.00 0.03 0.03 63 1013.8
20260905172148 30 188 0.0 4.8 0.00 0.03 0.03 63 1013.7
20260905171818 30 188 0.0 4.8 0.00 0.03 0.03 63 1013.7
20260905171703 30 188 0.0 4.8 0.00 0.03 0.03 62 1013.7
20260905171553 30 263 0.0 4.8 0.00 0.03 0.03 62 1013.7
20260905171239 30 152 0.0 4.8 0.00 0.03 0.03 62 1013.7
20260905171128 30 205 0.0 3.2 0.00 0.03 0.03 62 1013.7
20260905171049 30 205 0.0 4.8 0.00 0.03 0.03 62 1013.7
20260905171020 30 205 1.6 6.4 0.00 0.03 0.03 61 1013.6
20260905170849 30 205 1.6 8.0 0.00 0.03 0.03 61 1013.6
20260905170745 30 205 1.6 8.0 0.00 0.03 0.03 61 1013.6
20260905170733 30 205 3.2 8.0 0.00 0.03 0.03 61 1013.6
20260905170612 30 202 3.2 9.7 0.00 0.03 0.03 61 1013.7
20260905170459 30 174 4.8 11.3 0.00 0.03 0.03 60 1013.6
20260905170419 30 135 4.8 11.3 0.00 0.03 0.03 60 1013.6
20260905170337 30 154 4.8 11.3 0.00 0.03 0.03 60 1013.6
20260905170221 31 152 3.2 11.3 0.00 0.03 0.03 59 1013.6
20260905165849 31 227 3.2 11.3 0.00 0.03 0.03 58 1013.6
20260905165728 31 178 3.2 11.3 0.00 0.03 0.03 58 1013.6
20260905165614 31 169 1.6 9.7 0.00 0.03 0.03 56 1013.6
20260905165536 31 160 1.6 9.7 0.00 0.03 0.03 56 1013.6
20260905165455 31 180 3.2 9.7 0.00 0.03 0.03 56 1013.6
20260905165334 31 176 3.2 9.7 0.00 0.03 0.03 55 1013.6
20260905165230 31 180 3.2 9.7 0.00 0.03 0.03 55 1013.6
20260905165210 31 190 3.2 9.7 0.00 0.03 0.03 55 1013.6
20260905165059 31 182 3.2 9.7 0.00 0.03 0.03 54 1013.6
20260905164947 31 182 4.8 11.3 0.00 0.03 0.03 54 1013.6
20260905164616 31 211 4.8 11.3 0.00 0.03 0.03 53 1013.6
20260905164504 31 160 4.8 11.3 0.00 0.03 0.03 53 1013.5
20260905164139 31 206 4.8 11.3 0.00 0.03 0.03 53 1013.6
20260905164121 31 182 4.8 11.3 0.00 0.03 0.03 52 1013.6
20260905164014 32 158 4.8 16.1 0.00 0.03 0.03 52 1013.6
20260905163905 32 161 3.2 16.1 0.00 0.03 0.03 53 1013.6
20260905163533 32 132 3.2 16.1 0.00 0.03 0.03 52 1013.6
20260905163418 32 244 4.8 16.1 0.00 0.03 0.03 52 1013.6
20260905163312 32 148 4.8 16.1 0.00 0.03 0.03 52 1013.7
20260905163249 32 167 4.8 16.1 0.00 0.03 0.03 52 1013.7
20260905163135 32 187 3.2 9.7 0.00 0.03 0.03 51 1013.6
20260905163016 32 169 3.2 9.7 0.00 0.03 0.03 51 1013.6
20260905162951 32 215 4.8 9.7 0.00 0.03 0.03 51 1013.5
20260905162852 32 171 4.8 9.7 0.00 0.03 0.03 50 1013.5
20260905162724 32 146 4.8 14.5 0.00 0.03 0.03 50 1013.5
20260905162640 32 185 4.8 14.5 0.00 0.03 0.03 50 1013.5
20260905162612 32 190 4.8 14.5 0.00 0.03 0.03 50 1013.5
20260905162509 32 156 4.8 14.5 0.00 0.03 0.03 49 1013.5
20260905162406 32 192 4.8 14.5 0.00 0.03 0.03 49 1013.5
20260905162044 32 181 4.8 14.5 0.00 0.03 0.03 49 1013.5
20260905161918 32 163 4.8 11.3 0.00 0.03 0.03 49 1013.4
20260905161838 32 233 4.8 11.3 0.00 0.03 0.03 49 1013.4
20260905161810 33 149 4.8 11.3 0.00 0.03 0.03 49 1013.4
20260905161659 33 236 4.8 11.3 0.00 0.03 0.03 49 1013.4
20260905161556 33 160 4.8 11.3 0.00 0.03 0.03 49 1013.4
20260905161540 33 163 4.8 11.3 0.00 0.03 0.03 49 1013.4
20260905161436 33 165 4.8 11.3 0.00 0.03 0.03 48 1013.4
20260905161319 33 145 4.8 11.3 0.00 0.03 0.03 48 1013.4
20260905161228 33 238 4.8 11.3 0.00 0.03 0.03 48 1013.4
20260905161202 33 218 4.8 11.3 0.00 0.03 0.03 48 1013.4
20260905161051 33 195 4.8 11.3 0.00 0.03 0.03 48 1013.4
20260905160945 33 171 4.8 12.9 0.00 0.03 0.03 49 1013.4
20260905160927 33 218 4.8 12.9 0.00 0.03 0.03 49 1013.4
20260905160826 33 207 4.8 12.9 0.00 0.03 0.03 49 1013.3
20260905160709 33 173 4.8 12.9 0.00 0.03 0.03 49 1013.3
20260905160627 33 167 6.4 12.9 0.00 0.03 0.03 48 1013.3
20260905160548 33 214 6.4 12.9 0.00 0.03 0.03 48 1013.3
20260905160438 33 196 6.4 14.5 0.00 0.03 0.03 48 1013.3
20260905160333 33 192 8.0 14.5 0.00 0.03 0.03 47 1013.3
20260905160320 33 209 8.0 17.7 0.00 0.03 0.03 47 1013.3
20260905160218 33 185 8.0 17.7 0.00 0.03 0.03 46 1013.4
20260905160109 33 196 8.0 17.7 0.00 0.03 0.03 46 1013.4
20260905160014 34 208 8.0 17.7 0.00 0.03 0.03 46 1013.4
20260905155943 34 207 8.0 17.7 0.00 0.03 0.03 46 1013.4
20260905155833 34 216 6.4 17.7 0.00 0.03 0.03 48 1013.3
20260905155730 34 229 6.4 14.5 0.00 0.03 0.03 48 1013.4
20260905155722 34 227 6.4 14.5 0.00 0.03 0.03 48 1013.4
20260905155618 34 214 4.8 14.5 0.00 0.03 0.03 48 1013.4
20260905155513 34 226 4.8 12.9 0.00 0.03 0.03 48 1013.4
20260905155429 34 252 4.8 12.9 0.00 0.03 0.03 48 1013.3
20260905155351 34 238 4.8 12.9 0.00 0.03 0.03 48 1013.3
20260905155227 34 226 4.8 9.7 0.00 0.03 0.03 46 1013.4
20260905155036 34 156 6.4 11.3 0.00 0.03 0.03 46 1013.4
20260905154839 34 168 4.8 11.3 0.00 0.03 0.03 46 1013.4
20260905153822 34 242 6.4 12.9 0.00 0.03 0.03 42 1013.4
20260905153050 35 198 6.4 12.9 0.00 0.03 0.03 43 1013.5
20260905153042 35 179 6.4 12.9 0.00 0.03 0.03 43 1013.5
20260905152428 35 182 6.4 12.9 0.00 0.03 0.03 43 1013.6
20260905152005 35 226 8.0 17.7 0.00 0.03 0.03 42 1013.6
20260905151403 35 240 6.4 19.3 0.00 0.03 0.03 43 1013.7
20260905151211 35 211 6.4 19.3 0.00 0.03 0.03 44 1013.7
20260905150750 35 206 4.8 12.9 0.00 0.03 0.03 42 1013.7
20260905145736 35 163 6.4 16.1 0.00 0.03 0.03 44 1013.8
20260905145133 35 169 6.4 14.5 0.00 0.03 0.03 44 1013.8
20260905144352 35 174 6.4 14.5 0.00 0.03 0.03 41 1013.7
20260905143155 35 229 6.4 12.9 0.00 0.03 0.03 41 1013.9
20260905142819 35 217 6.4 12.9 0.00 0.03 0.03 42 1013.9
20260905142122 35 245 4.8 11.3 0.00 0.03 0.03 43 1014.0
20260905135553 35 164 6.4 14.5 0.00 0.03 0.03 45 1014.3
20260905133929 35 188 6.4 12.9 0.00 0.03 0.03 43 1014.5
20260905133029 35 163 6.4 14.5 0.00 0.03 0.03 42 1014.5
20260905132224 35 164 4.8 14.5 0.00 0.03 0.03 43 1014.5
20260905132122 35 261 4.8 14.5 0.00 0.03 0.03 43 1014.5
20260905131500 35 242 4.8 14.5 0.00 0.03 0.03 43 1014.5
20260905130609 35 200 4.8 14.5 0.00 0.03 0.03 43 1014.6
20260905130031 35 252 4.8 14.5 0.00 0.03 0.03 43 1014.6
20260905125745 35 240 4.8 14.5 0.00 0.03 0.03 43 1014.6
20260905124849 35 171 4.8 12.9 0.00 0.03 0.03 43 1014.6
20260905124122 34 147 6.4 14.5 0.00 0.03 0.03 43 1014.6
20260905124109 34 137 6.4 14.5 0.00 0.03 0.03 43 1014.6
20260905123954 34 216 8.0 17.7 0.00 0.03 0.03 44 1014.6
20260905123611 34 146 8.0 17.7 0.00 0.03 0.03 45 1014.6
20260905123529 34 217 8.0 17.7 0.00 0.03 0.03 45 1014.6
20260905123447 34 180 9.7 17.7 0.00 0.03 0.03 44 1014.6
20260905123312 34 153 9.7 17.7 0.00 0.03 0.03 44 1014.6
20260905123154 34 227 9.7 17.7 0.00 0.03 0.03 44 1014.6
20260905122745 34 239 8.0 17.7 0.00 0.03 0.03 44 1014.7
20260905122543 34 217 8.0 17.7 0.00 0.03 0.03 44 1014.7
20260905122429 34 180 8.0 17.7 0.00 0.03 0.03 44 1014.7
20260905122347 35 179 8.0 17.7 0.00 0.03 0.03 44 1014.6
20260905122140 35 193 8.0 16.1 0.00 0.03 0.03 44 1014.7
20260905121942 34 200 6.4 12.9 0.00 0.03 0.03 43 1014.6
20260905121929 34 259 6.4 12.9 0.00 0.03 0.03 43 1014.6
20260905121741 34 209 6.4 12.9 0.00 0.03 0.03 43 1014.6
20260905121719 35 153 8.0 17.7 0.00 0.03 0.03 43 1014.9
20260905121646 34 296 6.4 16.1 0.00 0.03 0.03 43 1014.9
20260905121630 34 202 4.8 12.9 0.00 0.03 0.03 43 1015.4
20260905121610 33 205 3.2 11.3 0.00 0.03 0.03 44 1015.4
20260905121559 33 337 4.8 12.9 0.00 0.03 0.03 44 1015.4
20260905121536 34 148 6.4 12.9 0.00 0.03 0.03 43 1014.6
20260905121513 33 268 6.4 14.5 0.00 0.03 0.03 44 1015.6
20260905121433 34 156 6.4 12.9 0.00 0.03 0.03 43 1014.6
20260905121341 34 170 6.4 12.9 0.00 0.03 0.03 42 1014.6
20260905121221 33 205 3.2 9.7 0.00 0.03 0.03 45 1015.5
20260905121135 34 230 6.4 17.7 0.00 0.03 0.03 42 1014.8
20260905121051 32 163 4.8 11.3 0.00 0.03 0.03 52 1016.4
20260905121030 32 215 4.8 11.3 0.00 0.03 0.03 53 1016.6
20260905120930 34 159 6.4 17.7 0.00 0.03 0.03 42 1014.8
20260905120924 31 205 3.2 9.7 0.00 0.03 0.03 55 1016.6
20260905120742 34 217 8.0 17.7 0.00 0.03 0.03 42 1014.8
20260905120615 34 230 8.0 17.7 0.00 0.03 0.03 43 1014.8
20260905120530 34 245 8.0 17.7 0.00 0.03 0.03 43 1014.9
20260905120448 34 218 8.0 17.7 0.00 0.03 0.03 43 1014.9
20260905120320 34 235 8.0 17.7 0.00 0.03 0.03 43 1014.9
20260905120200 35 153 8.0 17.7 0.00 0.03 0.03 43 1014.9
20260905120031 35 165 8.0 17.7 0.00 0.03 0.03 44 1014.8
20260905115917 35 191 8.0 17.7 0.00 0.03 0.03 44 1014.9
20260905115832 35 183 8.0 17.7 0.00 0.03 0.03 44 1014.9
20260905115759 35 212 8.0 17.7 0.00 0.03 0.03 44 1014.9
20260905115614 35 257 6.4 16.1 0.00 0.03 0.03 43 1014.9
20260905115243 34 261 6.4 16.1 0.00 0.03 0.03 43 1014.9
20260905115136 34 204 6.4 16.1 0.00 0.03 0.03 43 1015.1
20260905115018 34 220 4.8 16.1 0.00 0.03 0.03 44 1015.0
20260905114940 34 196 4.8 16.1 0.00 0.03 0.03 44 1015.0
20260905114847 34 257 4.8 12.9 0.00 0.03 0.03 43 1015.1
20260905114728 34 259 4.8 12.9 0.00 0.03 0.03 43 1015.1
20260905114617 34 187 3.2 9.7 0.00 0.03 0.03 42 1015.0
20260905114603 34 200 3.2 9.7 0.00 0.03 0.03 42 1015.0
20260905114139 34 275 4.8 9.7 0.00 0.03 0.03 42 1015.2
20260905114028 34 315 4.8 9.7 0.00 0.03 0.03 42 1015.2
20260905113953 34 299 4.8 11.3 0.00 0.03 0.03 42 1015.1
20260905113859 34 279 4.8 12.9 0.00 0.03 0.03 42 1015.1
20260905113743 34 222 6.4 14.5 0.00 0.03 0.03 42 1015.1
20260905113641 34 264 6.4 14.5 0.00 0.03 0.03 42 1015.1
20260905113623 34 277 6.4 14.5 0.00 0.03 0.03 42 1015.2
20260905113517 34 310 6.4 14.5 0.00 0.03 0.03 42 1015.2
20260905113410 34 225 6.4 14.5 0.00 0.03 0.03 42 1015.2
20260905113336 34 276 6.4 14.5 0.00 0.03 0.03 42 1015.2
20260905113241 34 215 6.4 14.5 0.00 0.03 0.03 42 1015.2
20260905113120 34 234 4.8 14.5 0.00 0.03 0.03 42 1015.2
20260905113018 34 202 4.8 14.5 0.00 0.03 0.03 42 1015.3
20260905113004 34 221 4.8 14.5 0.00 0.03 0.03 42 1015.3
20260905112842 34 173 3.2 11.3 0.00 0.03 0.03 42 1015.3
20260905112734 34 198 4.8 12.9 0.00 0.03 0.03 43 1015.4
20260905112408 34 165 4.8 12.9 0.00 0.03 0.03 43 1015.4
20260905112252 34 191 4.8 12.9 0.00 0.03 0.03 43 1015.4
20260905112142 33 309 4.8 12.9 0.00 0.03 0.03 43 1015.4
20260905112128 33 98 4.8 12.9 0.00 0.03 0.03 43 1015.4
20260905112003 33 146 4.8 12.9 0.00 0.03 0.03 43 1015.4
20260905111854 33 213 4.8 11.3 0.00 0.03 0.03 44 1015.4
20260905111507 33 194 3.2 11.3 0.00 0.03 0.03 44 1015.4
20260905111345 33 209 4.8 11.3 0.00 0.03 0.03 44 1015.4
20260905111019 33 349 4.8 12.9 0.00 0.03 0.03 44 1015.4
20260905110859 33 272 4.8 12.9 0.00 0.03 0.03 44 1015.5
20260905110743 33 156 4.8 12.9 0.00 0.03 0.03 44 1015.4
20260905110721 33 149 4.8 12.9 0.00 0.03 0.03 44 1015.4
20260905110621 33 138 4.8 12.9 0.00 0.03 0.03 44 1015.4
20260905110512 33 142 4.8 9.7 0.00 0.03 0.03 44 1015.4
20260905110416 33 92 4.8 14.5 0.00 0.03 0.03 44 1015.4
20260905110353 33 111 4.8 14.5 0.00 0.03 0.03 44 1015.4
20260905110238 33 15 4.8 14.5 0.00 0.03 0.03 44 1015.5
20260905110122 33 17 6.4 14.5 0.00 0.03 0.03 44 1015.6
20260905105754 33 210 6.4 14.5 0.00 0.03 0.03 44 1015.5
20260905105629 33 233 4.8 14.5 0.00 0.03 0.03 45 1015.6
20260905105536 33 165 4.8 11.3 0.00 0.03 0.03 44 1015.6
20260905105512 33 243 4.8 11.3 0.00 0.03 0.03 44 1015.6
20260905105342 33 194 4.8 11.3 0.00 0.03 0.03 45 1015.6
20260905105222 33 149 3.2 9.7 0.00 0.03 0.03 45 1015.5
20260905104850 33 180 3.2 9.7 0.00 0.03 0.03 45 1015.6
20260905104737 33 161 3.2 9.7 0.00 0.03 0.03 46 1015.6
20260905104646 33 331 3.2 9.7 0.00 0.03 0.03 46 1015.6
20260905104604 33 333 3.2 9.7 0.00 0.03 0.03 46 1015.6
20260905104452 33 131 3.2 8.0 0.00 0.03 0.03 46 1015.7
20260905104329 33 180 4.8 17.7 0.00 0.03 0.03 46 1015.7
20260905104033 33 279 6.4 17.7 0.00 0.03 0.03 46 1015.7
20260905103924 33 218 6.4 17.7 0.00 0.03 0.03 46 1015.6
20260905103841 33 224 6.4 17.7 0.00 0.03 0.03 46 1015.6
20260905103803 33 194 6.4 17.7 0.00 0.03 0.03 46 1015.8
20260905103655 33 220 6.4 17.7 0.00 0.03 0.03 47 1015.7
20260905103536 33 194 4.8 14.5 0.00 0.03 0.03 47 1015.7
20260905103419 33 198 4.8 14.5 0.00 0.03 0.03 47 1015.8
20260905103300 33 250 4.8 11.3 0.00 0.03 0.03 48 1015.9
20260905103223 33 185 4.8 14.5 0.00 0.03 0.03 48 1015.9
20260905103148 33 161 4.8 14.5 0.00 0.03 0.03 48 1015.9
20260905103032 33 126 4.8 14.5 0.00 0.03 0.03 48 1015.9
20260905102906 33 197 4.8 14.5 0.00 0.03 0.03 48 1016.0
20260905102800 33 171 6.4 14.5 0.00 0.03 0.03 48 1016.0
20260905102640 33 193 6.4 14.5 0.00 0.03 0.03 48 1016.1
20260905102600 33 210 4.8 12.9 0.00 0.03 0.03 48 1016.1
20260905102520 33 200 4.8 12.9 0.00 0.03 0.03 47 1016.1
20260905102405 33 206 4.8 12.9 0.00 0.03 0.03 47 1016.1
20260905102256 33 223 4.8 12.9 0.00 0.03 0.03 47 1016.1
20260905102248 33 256 4.8 12.9 0.00 0.03 0.03 47 1016.1
20260905102114 32 196 3.2 12.9 0.00 0.03 0.03 48 1016.1
20260905101955 32 198 3.2 9.7 0.00 0.03 0.03 48 1016.1
20260905101921 32 179 3.2 9.7 0.00 0.03 0.03 48 1016.1
20260905101357 32 137 3.2 9.7 0.00 0.03 0.03 48 1016.1
20260905100500 32 211 3.2 9.7 0.00 0.03 0.03 49 1016.1
20260905095832 32 252 4.8 9.7 0.00 0.03 0.03 49 1016.2
20260905095645 32 212 4.8 9.7 0.00 0.03 0.03 49 1016.2
20260905094702 32 175 4.8 11.3 0.00 0.03 0.03 49 1016.1
20260905094116 32 232 4.8 14.5 0.00 0.03 0.03 49 1016.2
20260905094051 32 286 4.8 14.5 0.00 0.03 0.03 49 1016.2
20260905093941 32 340 4.8 14.5 0.00 0.03 0.03 49 1016.3
20260905093822 32 213 4.8 14.5 0.00 0.03 0.03 50 1016.2
20260905093724 32 236 6.4 14.5 0.00 0.03 0.03 50 1016.2
20260905093702 32 257 6.4 14.5 0.00 0.03 0.03 50 1016.2
20260905093537 32 207 4.8 14.5 0.00 0.03 0.03 51 1016.3
20260905093359 32 223 4.8 11.3 0.00 0.03 0.03 51 1016.4
20260905093309 32 223 4.8 11.3 0.00 0.03 0.03 51 1016.4
20260905093156 32 223 4.8 11.3 0.00 0.03 0.03 51 1016.4
20260905093114 32 214 4.8 11.3 0.00 0.03 0.03 51 1016.4
20260905093029 32 220 4.8 11.3 0.00 0.03 0.03 52 1016.4
20260905092850 32 213 4.8 11.3 0.00 0.03 0.03 52 1016.4
20260905092715 32 148 4.8 11.3 0.00 0.03 0.03 52 1016.4
20260905092331 32 227 4.8 11.3 0.00 0.03 0.03 52 1016.6
20260905092154 32 212 4.8 11.3 0.00 0.03 0.03 53 1016.4
20260905091820 32 203 4.8 11.3 0.00 0.03 0.03 53 1016.6
20260905091649 32 207 4.8 9.7 0.00 0.03 0.03 54 1016.4
20260905091517 31 209 3.2 9.7 0.00 0.03 0.03 55 1016.6
20260905091500 31 209 3.2 9.7 0.00 0.03 0.03 55 1016.6
20260905091342 31 235 3.2 9.7 0.00 0.03 0.03 54 1016.6
20260905091144 31 310 3.2 9.7 0.00 0.03 0.03 54 1016.6
20260905090811 31 213 3.2 9.7 0.00 0.03 0.03 55 1016.6
20260905090643 31 210 3.2 8.0 0.00 0.03 0.03 55 1016.7
20260905090521 31 174 3.2 8.0 0.00 0.03 0.03 56 1016.6
20260905090459 31 234 3.2 8.0 0.00 0.03 0.03 56 1016.6
20260905090358 31 210 3.2 8.0 0.00 0.03 0.03 56 1016.7
20260905090241 31 230 3.2 8.0 0.00 0.03 0.03 56 1016.6
20260905090151 31 263 4.8 8.0 0.00 0.03 0.03 56 1016.6
20260905090122 31 263 4.8 8.0 0.00 0.03 0.03 56 1016.7
20260905085956 31 236 3.2 8.0 0.00 0.03 0.03 57 1016.6
20260905085829 31 236 3.2 11.3 0.00 0.03 0.03 57 1016.6
20260905085812 31 176 3.2 11.3 0.00 0.03 0.03 57 1016.6
20260905085652 30 184 3.2 11.3 0.00 0.03 0.03 58 1016.6
20260905085526 30 192 3.2 11.3 0.00 0.03 0.03 58 1016.4
20260905085136 30 195 3.2 11.3 0.00 0.03 0.03 58 1016.8
20260905084754 30 200 3.2 11.3 0.00 0.03 0.03 57 1016.8
20260905084056 30 235 3.2 11.3 0.00 0.03 0.03 57 1016.7
20260905083846 30 199 3.2 11.3 0.00 0.03 0.03 58 1016.7
20260905083659 30 292 3.2 11.3 0.00 0.03 0.03 58 1016.7
20260905083541 30 219 4.8 11.3 0.00 0.03 0.03 60 1016.8
20260905083453 30 52 3.2 11.3 0.00 0.03 0.03 58 1016.7
20260905083417 30 294 3.2 11.3 0.00 0.03 0.03 58 1016.7
20260905083331 30 216 3.2 11.3 0.00 0.03 0.03 59 1016.8
20260905083211 30 241 3.2 11.3 0.00 0.03 0.03 60 1016.8
20260905083057 30 219 4.8 11.3 0.00 0.03 0.03 60 1016.8
20260905082649 30 236 4.8 11.3 0.00 0.03 0.03 60 1016.8
20260905082340 30 202 4.8 11.3 0.00 0.03 0.03 60 1016.8
20260905082246 30 195 4.8 11.3 0.00 0.03 0.03 60 1016.8
20260905082046 30 227 4.8 9.7 0.00 0.03 0.03 60 1016.8
20260905081847 29 232 3.2 9.7 0.00 0.03 0.03 61 1016.7
20260905081840 29 231 3.2 9.7 0.00 0.03 0.03 61 1016.7
20260905081655 29 187 4.8 9.7 0.00 0.03 0.03 61 1016.7
20260905081514 29 180 4.8 9.7 0.00 0.03 0.03 62 1016.7
20260905081357 29 215 4.8 9.7 0.00 0.03 0.03 62 1016.7
20260905081308 29 200 4.8 9.7 0.00 0.03 0.03 62 1016.7
20260905081051 29 218 3.2 9.7 0.00 0.03 0.03 62 1016.7
20260905080844 29 261 4.8 9.7 0.00 0.03 0.03 62 1016.7
20260905080829 29 262 4.8 9.7 0.00 0.03 0.03 62 1016.7
20260905080639 29 221 3.2 9.7 0.00 0.03 0.03 63 1016.8
20260905080446 29 223 3.2 8.0 0.00 0.03 0.03 63 1016.8
20260905080341 29 188 3.2 8.0 0.00 0.03 0.03 63 1016.8
20260905080225 28 163 3.2 11.3 0.00 0.03 0.03 63 1016.8
20260905080013 28 192 3.2 11.3 0.00 0.03 0.03 64 1016.9
20260905075850 28 218 3.2 11.3 0.00 0.03 0.03 64 1016.8
20260905075819 28 147 3.2 11.3 0.00 0.03 0.03 64 1016.8
20260905075621 28 160 3.2 11.3 0.00 0.03 0.03 64 1016.8
20260905075452 28 232 3.2 11.3 0.00 0.03 0.03 64 1016.9
20260905075405 28 232 4.8 11.3 0.00 0.03 0.03 64 1016.9
20260905075307 28 248 4.8 9.7 0.00 0.03 0.03 64 1016.8
20260905075107 28 225 3.2 9.7 0.00 0.03 0.03 65 1016.8
20260905074949 28 203 3.2 9.7 0.00 0.03 0.03 65 1016.8
20260905074929 28 296 3.2 9.7 0.00 0.03 0.03 65 1016.8
20260905074813 28 167 4.8 9.7 0.00 0.03 0.03 65 1016.9
20260905074649 28 188 4.8 9.7 0.00 0.03 0.03 65 1016.8
20260905074621 28 207 4.8 9.7 0.00 0.03 0.03 65 1016.8
20260905074505 28 239 4.8 9.7 0.00 0.03 0.03 65 1016.8
20260905074028 28 234 3.2 9.7 0.00 0.03 0.03 65 1016.8
20260905073847 28 210 3.2 9.7 0.00 0.03 0.03 65 1016.8
20260905073819 28 199 3.2 9.7 0.00 0.03 0.03 65 1016.8
20260905073633 28 207 3.2 9.7 0.00 0.03 0.03 65 1016.7
20260905073412 27 220 3.2 8.0 0.00 0.03 0.03 66 1016.7
20260905073331 27 220 3.2 8.0 0.00 0.03 0.03 66 1016.7
20260905073213 27 227 3.2 9.7 0.00 0.03 0.03 65 1016.7
20260905073010 27 175 4.8 9.7 0.00 0.03 0.03 65 1016.7
20260905072832 27 219 4.8 9.7 0.00 0.03 0.03 65 1016.7
20260905072804 27 239 4.8 9.7 0.00 0.03 0.03 65 1016.7
20260905072609 27 207 4.8 9.7 0.00 0.03 0.03 65 1016.7
20260905072419 27 227 4.8 9.7 0.00 0.03 0.03 65 1016.8
20260905072354 27 223 4.8 9.7 0.00 0.03 0.03 65 1016.8
20260905072240 27 222 3.2 9.7 0.00 0.03 0.03 66 1016.8
20260905072109 27 215 3.2 9.7 0.00 0.03 0.03 66 1016.8
20260905072009 27 284 3.2 9.7 0.00 0.03 0.03 66 1016.7
20260905071945 27 274 3.2 9.7 0.00 0.03 0.03 66 1016.7
20260905071824 27 271 3.2 8.0 0.00 0.03 0.03 66 1016.8
20260905071655 27 194 3.2 8.0 0.00 0.03 0.03 66 1016.7
20260905071631 27 225 3.2 8.0 0.00 0.03 0.03 66 1016.7
20260905071537 27 225 4.8 11.3 0.00 0.03 0.03 66 1016.8
20260905071408 27 229 4.8 11.3 0.00 0.03 0.03 66 1016.8
20260905071300 27 281 4.8 11.3 0.00 0.03 0.03 66 1016.7
20260905071240 27 304 4.8 11.3 0.00 0.03 0.03 66 1016.7
20260905071125 27 283 3.2 11.3 0.00 0.03 0.03 66 1016.7
20260905071007 27 225 3.2 11.3 0.00 0.03 0.03 66 1016.7
20260905070944 27 192 3.2 11.3 0.00 0.03 0.03 66 1016.7
20260905070848 27 240 3.2 8.0 0.00 0.03 0.03 66 1016.7
20260905070728 27 267 1.6 8.0 0.00 0.03 0.03 66 1016.7
20260905070631 27 246 1.6 6.4 0.00 0.03 0.03 67 1016.7
20260905070606 27 246 1.6 6.4 0.00 0.03 0.03 67 1016.7
20260905070452 27 246 3.2 6.4 0.00 0.03 0.03 67 1016.7
20260905070340 26 291 3.2 6.4 0.00 0.03 0.03 67 1016.7
20260905070321 26 262 3.2 6.4 0.00 0.03 0.03 67 1016.7
20260905070206 26 261 3.2 6.4 0.00 0.03 0.03 67 1016.7
20260905070044 26 263 3.2 6.4 0.00 0.03 0.03 67 1016.7
20260905065944 26 300 4.8 8.0 0.00 0.03 0.03 67 1016.7
20260905065913 26 289 4.8 8.0 0.00 0.03 0.03 67 1016.7
20260905065754 26 293 4.8 8.0 0.00 0.03 0.03 68 1016.7